sat.trackr.live / text

‹ back to catalog

SGDC

NORAD 42692 · 2017-023B

PAYLOAD ACTIVE UNKNOWN

§ Identity

Operator
Country
BRAZ
Launch date
2017-05-04
Launch site
FRGUI
Launch vehicle
Mass (kg)
RCS (m²)

Purposes: comms

External: N2YO · Heavens-Above · Gunter

§ Orbital elements

Epoch: 2026-09-19T05:06:52.915680Z

Period
1,436.08 min
Inclination
0.0215°
Eccentricity
0.0002272
Mean motion
1.00272918 rev/d
Perigee alt
35,776.7 km
Apogee alt
35,795.9 km
Semi-major
42,164.4 km
B*
0.0000e+0
RAAN
83.6575°
Arg perigee
96.2774°
Mean anomaly
180.0756°
Rev number
3,434

§ Raw data

SGDC1 42692U 17023B   26262.21311245 -.00000254  00000+0  00000+0 0  99932 42692   0.0215  83.6575 0002272  96.2774 180.0756  1.00272918 34346

JSON: /api/v1/satellites/42692 · /tle

For live sub-satellite position, see the globe view (requires WebGL).

§ Visibility from observer

Set your observer location to see the next 7 days of passes ≥ 10°. The values pass through the URL so the page stays shareable.

No JS? Fill the form by hand. The geolocation button needs JavaScript.